Regional Weather Roundup
Issued by NWS Albany, NY

Home | Current Version | Previous Version | Graphics & Text | Print | Product List | Glossary Off
Versions: 1 2 3 4 5 6 7 8 9 10 11 12 13 14 15 16 17 18 19 20 21 22 23 24 25 26 27

000
ASUS41 KALY 202110
RWRALY

NEW YORK STATE HOURLY WEATHER ROUNDUP
NATIONAL WEATHER SERVICE ALBANY NY
400 PM EST TUE FEB 20 2018

NOTE: "FAIR" INDICATES FEW OR NO CLOUDS BELOW 12,000 FEET WITH NO
SIGNIFICANT WEATHER AND/OR NO OBSTRUCTIONS TO VISIBILITY.

NYZ032-033-038>043-046>054-057>066-NYZ062>081-082-084-202200-
EAST


CITY           SKY/WX    TMP DP  RH WIND       PRES   REMARKS
ALBANY         PTSUNNY   63  48  58 S10       30.17S
GLENS FALLS    CLOUDY    51  45  79 S6        30.15S
POUGHKEEPSIE   FAIR      67  49  52 SW12      30.22R
NEWBURGH       MOSUNNY   64  54  68 W12G21    30.25R
MONTGOMERY     FAIR      61  51  70 SW16      30.23R
WHITE PLAINS   FAIR      65  52  62 S6        30.26S
ISLIP          PTSUNNY   56  50  80 S8        30.29S
NEW YORK CITY  PTSUNNY   67  53  61 SW7       30.26F
CENTRAL PARK   FAIR      66  54  65 MISG      30.29F
$$

NYZ005>009-017-018-044>046-055-056-202200-
CENTRAL


CITY           SKY/WX    TMP DP  RH WIND       PRES   REMARKS
FULTON         LGT RAIN  53  52  96 CALM      30.10R VSB 1/2
SYRACUSE       LGT RAIN  64  57  78 S9        30.10R
ROME           CLOUDY    58  53  84 E8        30.13R
ELMIRA         CLOUDY    69  55  60 S8        30.16R
BINGHAMTON     FAIR      64  52  64 SW12      30.20R
MONTICELLO     FAIR      64  53  67 SE5       30.25R
$$

NYZ026>034-041>043-087-202200-
NORTH


CITY           SKY/WX    TMP DP  RH WIND       PRES   REMARKS
WATERTOWN      LGT RAIN  58  57  97 S10G20    30.06R
FORT DRUM      NOT AVBL
OGDENSBURG     DRZL/FOG  40  40  98 CALM      30.06S VSB 1/2
MASSENA        LGT RAIN  37  37 100 E5        30.07S FOG     WCI  33
SARANAC LAKE   CLOUDY    51  51 100 SW8       30.08R FOG
PLATTSBURGH    CLOUDY    44  42  93 CALM      30.08S
$$

NYZ001>004-010>016-019>021-085-202200-
WEST


CITY           SKY/WX    TMP DP  RH WIND       PRES   REMARKS
NIAGARA FALLS  LGT RAIN  64  56  75 SW18G28   30.05R
BUFFALO        LGT RAIN  58  55  90 SW10      30.08R
DUNKIRK        CLOUDY    66  58  75 SW17G29   30.10R
JAMESTOWN        N/A    N/A N/A N/A MISG        N/A
WELLSVILLE     CLOUDY    68  55  63 SW14G20   30.18R
ROCHESTER      CLOUDY    65  61  87 SW9       30.08R
PENN YAN       CLOUDY    68  53  58 S13       30.12R
$$

             KEY
       WCI = WIND CHILL INDEX
       VSB = VISIBILITY
       HX  = HEAT INDEX
$$




USA.gov is the U.S. government's official web portal to all federal, state and local government web resources and services.